RYR2JL EPMO-LPPT

Flight info

Callsign RYR2JL
Flight time N/A
Altitude 34000
Route N0442F340 OLILA L621 GRUDA DCT ALUKA DCT POVEL DCT NVO DCT IDOSA UN857 TOLVU DCT RAPOR DCT ESTOC UT300 PON UN872 ERIGA DCT FUJTI DCT ATLEN DCT ABUPI DCT XAMAX
Aircraft B738/M-SADFGHIJ7LP2RWXY/SB1D1G1

Departure

Time 2026-04-25 15:04
Airport Warsaw Modlin Airport (EPMO)

Arrival

Time N/A
Airport Lisbon Humberto Delgado Airport (LPPT)
Time Latitude Longitude Altitude Speed Heading
2026-04-25 14:28 52.44721 20.65018 337 ft 0 kts 205°
2026-04-25 14:55 52.44736 20.65030 333 ft 2 kts 206°
2026-04-25 14:56 52.44757 20.65040 336 ft 4 kts 156°
2026-04-25 14:56 52.44768 20.65015 335 ft 4 kts 82°
2026-04-25 14:56 52.44765 20.64977 333 ft 1 kts 81°
2026-04-25 14:56 52.44765 20.64976 333 ft 0 kts 81°
2026-04-25 14:59 52.44765 20.64980 332 ft 2 kts 81°
2026-04-25 14:59 52.44772 20.65050 336 ft 10 kts 81°
2026-04-25 15:00 52.44786 20.65203 335 ft 16 kts 81°
2026-04-25 15:00 52.44804 20.65391 337 ft 16 kts 81°
2026-04-25 15:00 52.44821 20.65573 335 ft 16 kts 83°
2026-04-25 15:00 52.44836 20.65756 337 ft 18 kts 81°
2026-04-25 15:01 52.44859 20.66003 337 ft 25 kts 81°
2026-04-25 15:01 52.44887 20.66291 336 ft 26 kts 82°
2026-04-25 15:01 52.44914 20.66587 336 ft 25 kts 81°
2026-04-25 15:01 52.44937 20.66833 337 ft 19 kts 81°
2026-04-25 15:02 52.44953 20.67010 336 ft 13 kts 82°
2026-04-25 15:02 52.45010 20.67079 333 ft 11 kts
2026-04-25 15:02 52.45084 20.67060 335 ft 11 kts 351°
2026-04-25 15:02 52.45155 20.67044 337 ft 10 kts 352°
2026-04-25 15:03 52.45223 20.67013 337 ft 10 kts 341°
2026-04-25 15:03 52.45282 20.66978 335 ft 8 kts 326°
2026-04-25 15:03 52.45285 20.66932 335 ft 4 kts 263°
2026-04-25 15:03 52.45280 20.66872 334 ft 12 kts 262°
2026-04-25 15:04 52.45232 20.66348 336 ft 81 kts 261°
2026-04-25 15:04 52.45115 20.65105 338 ft 138 kts 261°
2026-04-25 15:04 52.44951 20.63413 745 ft 155 kts 261°
2026-04-25 15:04 52.44773 20.61675 1589 ft 153 kts 262°
2026-04-25 15:05 52.44591 20.60015 2437 ft 150 kts 262°
2026-04-25 15:05 52.44388 20.58174 2748 ft 178 kts 261°
2026-04-25 15:05 52.44212 20.56036 3005 ft 198 kts 273°
2026-04-25 15:06 52.45910 20.52553 4426 ft 214 kts 339°
2026-04-25 15:06 52.47400 20.52242 5270 ft 219 kts 349°
2026-04-25 15:06 52.48940 20.52103 5966 ft 224 kts 350°
2026-04-25 15:06 52.50514 20.51975 6621 ft 228 kts 350°
2026-04-25 15:07 52.52091 20.51849 7434 ft 226 kts 349°
2026-04-25 15:07 52.53665 20.51717 8150 ft 228 kts 348°
2026-04-25 15:07 52.55261 20.51578 8827 ft 231 kts 348°
2026-04-25 15:07 52.56849 20.51337 9563 ft 225 kts 334°
2026-04-25 15:08 52.58064 20.49961 10161 ft 210 kts 302°
2026-04-25 15:08 52.58775 20.47889 10820 ft 209 kts 290°
2026-04-25 15:08 52.59088 20.45559 11494 ft 209 kts 279°
2026-04-25 15:08 52.59277 20.43133 11945 ft 222 kts 279°
2026-04-25 15:09 52.59474 20.40475 12118 ft 245 kts 278°
2026-04-25 15:09 52.59686 20.37579 12310 ft 266 kts 278°
2026-04-25 15:09 52.60166 20.31062 12641 ft 307 kts 278°
2026-04-25 15:10 52.60427 20.27509 13055 ft 317 kts 278°
2026-04-25 15:10 52.60694 20.23881 13677 ft 320 kts 278°
2026-04-25 15:10 52.61230 20.16563 14904 ft 324 kts 278°
2026-04-25 15:11 52.61502 20.12867 15489 ft 328 kts 278°
2026-04-25 15:11 52.61776 20.09120 16047 ft 331 kts 278°
2026-04-25 15:11 52.62052 20.05336 16614 ft 335 kts 278°
2026-04-25 15:12 52.62610 19.97656 17752 ft 341 kts 278°
2026-04-25 15:12 52.62892 19.93754 18270 ft 345 kts 278°
2026-04-25 15:12 52.63175 19.89811 18748 ft 348 kts 278°
2026-04-25 15:12 52.63271 19.88472 18908 ft 349 kts 278°
2026-04-25 15:13 52.63745 19.81827 19680 ft 355 kts 278°
2026-04-25 15:13 52.64321 19.73684 20588 ft 361 kts 277°
2026-04-25 15:13 52.64610 19.69556 21038 ft 364 kts 277°
2026-04-25 15:14 52.64901 19.65395 21463 ft 368 kts 277°
2026-04-25 15:14 52.65193 19.61194 21884 ft 371 kts 277°
2026-04-25 15:14 52.65485 19.56959 22298 ft 374 kts 277°
2026-04-25 15:14 52.65779 19.52687 22715 ft 377 kts 277°
2026-04-25 15:15 52.66070 19.48431 23121 ft 380 kts 277°
2026-04-25 15:15 52.66365 19.44090 23504 ft 383 kts 277°
2026-04-25 15:15 52.66661 19.39714 23843 ft 385 kts 277°
2026-04-25 15:15 52.66956 19.35326 24230 ft 386 kts 277°
2026-04-25 15:16 52.67250 19.30916 24609 ft 388 kts 277°
2026-04-25 15:16 52.67544 19.26497 24944 ft 390 kts 277°
2026-04-25 15:16 52.68133 19.17558 25555 ft 394 kts 277°
2026-04-25 15:17 52.68723 19.08509 26135 ft 400 kts 277°
2026-04-25 15:17 52.69017 19.03943 26433 ft 402 kts 277°
2026-04-25 15:17 52.69312 18.99348 26721 ft 404 kts 277°
2026-04-25 15:18 52.69607 18.94725 27007 ft 406 kts 277°
2026-04-25 15:18 52.70192 18.85459 27785 ft 405 kts 277°
2026-04-25 15:18 52.70479 18.80856 28287 ft 402 kts 277°
2026-04-25 15:19 52.70763 18.76279 28703 ft 401 kts 277°
2026-04-25 15:19 52.70859 18.74734 28827 ft 401 kts 277°
2026-04-25 15:19 52.71326 18.67132 29448 ft 401 kts 277°
2026-04-25 15:19 52.71605 18.62562 29866 ft 399 kts 277°
2026-04-25 15:20 52.71881 18.58008 30220 ft 398 kts 277°
2026-04-25 15:20 52.72154 18.53469 30564 ft 397 kts 277°
2026-04-25 15:20 52.72425 18.48946 30898 ft 396 kts 277°
2026-04-25 15:20 52.72693 18.44436 31227 ft 395 kts 277°
2026-04-25 15:21 52.72958 18.39934 31556 ft 394 kts 277°
2026-04-25 15:21 52.73222 18.35443 31897 ft 392 kts 277°
2026-04-25 15:21 52.73481 18.30982 32258 ft 390 kts 277°
2026-04-25 15:21 52.73739 18.26533 32588 ft 389 kts 277°
2026-04-25 15:22 52.73994 18.22105 32894 ft 388 kts 277°
2026-04-25 15:22 52.74246 18.17688 33241 ft 386 kts 277°
2026-04-25 15:22 52.74495 18.13292 33577 ft 384 kts 277°
2026-04-25 15:22 52.74743 18.08901 33827 ft 384 kts 277°
2026-04-25 15:23 52.75238 18.00049 33824 ft 389 kts 277°
2026-04-25 15:23 52.75725 17.91196 33824 ft 384 kts 277°
2026-04-25 15:24 52.76199 17.82449 33818 ft 382 kts 277°
2026-04-25 15:24 52.76512 17.76628 33838 ft 381 kts 277°
2026-04-25 15:25 52.77126 17.65033 33837 ft 380 kts 277°
2026-04-25 15:25 52.77579 17.56329 33838 ft 381 kts 277°
2026-04-25 15:26 52.78028 17.47599 33841 ft 382 kts 277°
2026-04-25 15:26 52.78396 17.40337 33840 ft 383 kts 277°
2026-04-25 15:27 52.78834 17.31563 33851 ft 383 kts 277°
2026-04-25 15:28 52.79480 17.18373 33844 ft 384 kts 277°
2026-04-25 15:28 52.79904 17.09571 33847 ft 385 kts 277°
2026-04-25 15:29 52.80320 17.00763 33861 ft 384 kts 277°
2026-04-25 15:29 52.80731 16.91956 33853 ft 384 kts 277°
2026-04-25 15:30 52.81134 16.83152 33839 ft 384 kts 277°
2026-04-25 15:30 52.81530 16.74373 33859 ft 383 kts 277°
2026-04-25 15:31 52.81919 16.65604 33814 ft 382 kts 277°
2026-04-25 15:31 52.82300 16.56859 33851 ft 381 kts 277°
2026-04-25 15:32 52.82676 16.48101 33866 ft 382 kts 277°
2026-04-25 15:32 52.83046 16.39329 33862 ft 383 kts 277°
2026-04-25 15:33 52.83590 16.26108 33868 ft 385 kts 277°
2026-04-25 15:33 52.83945 16.17281 33866 ft 386 kts 277°
2026-04-25 15:34 52.84296 16.08408 33873 ft 386 kts 277°
2026-04-25 15:34 52.84582 16.01033 33876 ft 387 kts 277°
2026-04-25 15:35 52.85143 15.86209 33879 ft 387 kts 277°
2026-04-25 15:36 52.85631 15.72912 33879 ft 385 kts 277°
2026-04-25 15:36 52.85946 15.64075 33876 ft 384 kts 277°
2026-04-25 15:37 52.86254 15.55273 33878 ft 383 kts 277°
2026-04-25 15:37 52.86555 15.46485 33887 ft 382 kts 277°
2026-04-25 15:38 52.86849 15.37732 33882 ft 381 kts 277°
2026-04-25 15:38 52.87136 15.28991 33864 ft 380 kts 277°
2026-04-25 15:39 52.87415 15.20272 33882 ft 379 kts 277°
2026-04-25 15:39 52.87686 15.11608 33896 ft 379 kts 277°
2026-04-25 15:40 52.87911 15.04302 33897 ft 380 kts 277°
2026-04-25 15:40 52.88215 14.94140 33893 ft 381 kts 277°
2026-04-25 15:41 52.88470 14.85375 33900 ft 382 kts 277°
2026-04-25 15:41 52.88719 14.76577 33899 ft 383 kts 277°
2026-04-25 15:42 52.88963 14.67768 33900 ft 383 kts 277°
2026-04-25 15:42 52.89200 14.58937 33900 ft 384 kts 277°
2026-04-25 15:43 52.89431 14.50099 33908 ft 384 kts 276°
2026-04-25 15:43 52.89657 14.41259 33906 ft 384 kts 276°
2026-04-25 15:44 52.89721 14.32398 33898 ft 388 kts 269°
2026-04-25 15:44 52.88536 14.23589 33900 ft 397 kts 258°
2026-04-25 15:45 52.86741 14.14959 33909 ft 397 kts 257°
2026-04-25 15:45 52.85235 14.07734 33924 ft 397 kts 257°
2026-04-25 15:46 52.83149 13.97685 33922 ft 398 kts 257°
2026-04-25 15:46 52.81355 13.89033 33921 ft 398 kts 257°
2026-04-25 15:47 52.79552 13.80365 33925 ft 399 kts 257°
2026-04-25 15:47 52.77739 13.71684 33928 ft 400 kts 257°
2026-04-25 15:48 52.75917 13.62998 33932 ft 400 kts 257°
2026-04-25 15:48 52.74086 13.54306 33936 ft 401 kts 257°
2026-04-25 15:49 52.72247 13.45613 33938 ft 402 kts 257°
2026-04-25 15:49 52.70396 13.36904 33934 ft 403 kts 257°
2026-04-25 15:50 52.68537 13.28193 33945 ft 403 kts 257°
2026-04-25 15:50 52.66670 13.19485 33939 ft 403 kts 257°
2026-04-25 15:51 52.65101 13.12193 33921 ft 403 kts 257°
2026-04-25 15:51 52.62919 13.02100 33939 ft 402 kts 257°
2026-04-25 15:52 52.61037 12.93429 33949 ft 402 kts 257°
2026-04-25 15:52 52.59150 12.84771 33952 ft 402 kts 257°
2026-04-25 15:53 52.57253 12.76106 33949 ft 402 kts 257°
2026-04-25 15:53 52.55352 12.67458 33956 ft 402 kts 256°
2026-04-25 15:54 52.53445 12.58816 33964 ft 403 kts 256°
2026-04-25 15:54 52.51525 12.50155 33951 ft 404 kts 256°
2026-04-25 15:55 52.49593 12.41473 33973 ft 406 kts 256°
2026-04-25 15:55 52.47645 12.32758 33972 ft 408 kts 256°
2026-04-25 15:56 52.45684 12.24019 33973 ft 409 kts 256°
2026-04-25 15:56 52.43709 12.15259 33979 ft 410 kts 256°
2026-04-25 15:57 52.41723 12.06487 33980 ft 411 kts 256°
2026-04-25 15:57 52.39730 11.97720 33931 ft 411 kts 256°
2026-04-25 15:58 52.37732 11.88968 33979 ft 410 kts 256°
2026-04-25 15:58 52.35727 11.80218 33995 ft 411 kts 255°
2026-04-25 15:59 52.33716 11.71478 33998 ft 411 kts 255°
2026-04-25 15:59 52.31695 11.62729 33996 ft 412 kts 255°
2026-04-25 16:00 52.30350 11.56931 34000 ft 412 kts 255°
2026-04-25 16:00 52.27626 11.45229 34010 ft 412 kts 255°
2026-04-25 16:01 52.25580 11.36486 33998 ft 412 kts 255°
2026-04-25 16:01 52.23528 11.27748 34017 ft 412 kts 255°
2026-04-25 16:02 52.21472 11.19028 34017 ft 412 kts 255°
2026-04-25 16:02 52.19419 11.10354 34015 ft 413 kts 255°
2026-04-25 16:03 52.17346 11.01632 34024 ft 414 kts 254°
2026-04-25 16:03 52.15261 10.92890 34022 ft 415 kts 254°
2026-04-25 16:04 52.13151 10.84084 34032 ft 414 kts 254°
2026-04-25 16:04 52.10839 10.75449 34038 ft 417 kts 251°
2026-04-25 16:05 52.08348 10.66907 34045 ft 418 kts 250°
2026-04-25 16:06 52.04608 10.54102 34020 ft 419 kts 251°
2026-04-25 16:06 52.02128 10.45557 34038 ft 418 kts 251°
2026-04-25 16:07 51.99650 10.37027 34054 ft 417 kts 251°
2026-04-25 16:07 51.97172 10.28520 34045 ft 416 kts 251°
2026-04-25 16:08 51.94694 10.20042 34056 ft 416 kts 251°
2026-04-25 16:08 51.92217 10.11600 34062 ft 415 kts 251°
2026-04-25 16:09 51.90154 10.04593 34066 ft 414 kts 251°
2026-04-25 16:09 51.87671 9.96187 34063 ft 414 kts 250°
2026-04-25 16:10 51.85189 9.87810 34061 ft 412 kts 250°
2026-04-25 16:10 51.82701 9.79444 34061 ft 413 kts 250°
2026-04-25 16:11 51.80190 9.71029 34056 ft 413 kts 250°
2026-04-25 16:11 51.77689 9.62674 34077 ft 414 kts 250°
2026-04-25 16:12 51.75170 9.54292 34082 ft 416 kts 250°
2026-04-25 16:12 51.72633 9.45878 34077 ft 418 kts 250°
2026-04-25 16:13 51.70077 9.37433 34082 ft 420 kts 250°
2026-04-25 16:13 51.67502 9.28955 34043 ft 422 kts 249°
2026-04-25 16:14 51.64918 9.20476 34066 ft 422 kts 249°
2026-04-25 16:14 51.62324 9.11997 34089 ft 422 kts 249°
2026-04-25 16:15 51.59720 9.03512 34101 ft 423 kts 249°
2026-04-25 16:15 51.57109 8.95037 34114 ft 423 kts 249°
2026-04-25 16:16 51.54495 8.86579 34116 ft 423 kts 249°
2026-04-25 16:16 51.51877 8.78138 34126 ft 422 kts 249°
2026-04-25 16:17 51.49255 8.69713 34124 ft 421 kts 249°
2026-04-25 16:17 51.46635 8.61322 34121 ft 420 kts 248°
2026-04-25 16:18 51.44014 8.52960 34116 ft 420 kts 248°
2026-04-25 16:18 51.41389 8.44609 34119 ft 419 kts 248°
2026-04-25 16:19 51.38760 8.36277 34108 ft 419 kts 248°
2026-04-25 16:19 51.36125 8.27949 34104 ft 419 kts 248°
2026-04-25 16:20 51.32161 8.15481 34115 ft 420 kts 248°
2026-04-25 16:21 51.28176 8.03011 34119 ft 420 kts 248°
2026-04-25 16:21 51.25511 7.94701 34119 ft 421 kts 248°
2026-04-25 16:22 51.22831 7.86378 34121 ft 422 kts 247°
2026-04-25 16:22 51.20140 7.78048 34127 ft 423 kts 247°
2026-04-25 16:23 51.17438 7.69713 34127 ft 423 kts 247°
2026-04-25 16:23 51.14731 7.61387 34128 ft 424 kts 247°
2026-04-25 16:24 51.12013 7.53059 34129 ft 424 kts 247°
2026-04-25 16:24 51.09288 7.44736 34130 ft 424 kts 246°
2026-04-25 16:25 51.06561 7.36434 34147 ft 424 kts 246°
2026-04-25 16:25 51.03826 7.28133 34150 ft 424 kts 246°
2026-04-25 16:26 51.01067 7.19793 34153 ft 423 kts 246°
2026-04-25 16:26 50.98327 7.11533 34154 ft 423 kts 246°
2026-04-25 16:27 50.95582 7.03285 34151 ft 422 kts 246°
2026-04-25 16:27 50.92837 6.95065 34154 ft 422 kts 246°
2026-04-25 16:28 50.90087 6.86857 34153 ft 421 kts 246°
2026-04-25 16:28 50.87338 6.78675 34157 ft 421 kts 246°
2026-04-25 16:29 50.84580 6.70493 34150 ft 421 kts 245°
2026-04-25 16:29 50.82985 6.66593 34145 ft 426 kts 233°
2026-04-25 16:29 50.80867 6.63279 34165 ft 432 kts 223°
2026-04-25 16:29 50.78354 6.60628 34153 ft 438 kts 211°
2026-04-25 16:30 50.75593 6.58569 34173 ft 440 kts 208°
2026-04-25 16:30 50.69996 6.54639 34143 ft 440 kts 208°
2026-04-25 16:31 50.64403 6.50703 34140 ft 440 kts 208°
2026-04-25 16:31 50.58833 6.46723 34133 ft 440 kts 209°
2026-04-25 16:32 50.53305 6.42754 34132 ft 439 kts 209°
2026-04-25 16:32 50.47709 6.38740 34125 ft 439 kts 209°
2026-04-25 16:33 50.42194 6.34795 34117 ft 438 kts 209°
2026-04-25 16:33 50.36652 6.30842 34112 ft 438 kts 209°
2026-04-25 16:34 50.31071 6.26874 34135 ft 437 kts 209°
2026-04-25 16:34 50.25536 6.22947 34129 ft 437 kts 208°
2026-04-25 16:35 50.21837 6.20329 34135 ft 436 kts 208°
2026-04-25 16:35 50.14482 6.15136 34137 ft 435 kts 208°
2026-04-25 16:36 50.08965 6.11251 34133 ft 435 kts 209°
2026-04-25 16:36 50.03452 6.07380 34128 ft 434 kts 208°
2026-04-25 16:37 49.97942 6.03520 34133 ft 434 kts 208°
2026-04-25 16:37 49.92436 5.99672 34144 ft 434 kts 208°
2026-04-25 16:38 49.86930 5.95834 34139 ft 434 kts 208°
2026-04-25 16:38 49.81418 5.91999 34113 ft 434 kts 208°
2026-04-25 16:39 49.76052 5.87828 34104 ft 426 kts 223°
2026-04-25 16:39 49.74016 5.84594 34153 ft 418 kts 237°
2026-04-25 16:39 49.72585 5.80702 34185 ft 417 kts 251°
2026-04-25 16:40 49.70667 5.72257 34412 ft 422 kts 253°
2026-04-25 16:40 49.69710 5.67967 34616 ft 423 kts 253°
2026-04-25 16:40 49.68739 5.63687 34892 ft 421 kts 253°
2026-04-25 16:40 49.67745 5.59377 35173 ft 420 kts 252°
2026-04-25 16:41 49.66770 5.55196 35442 ft 419 kts 252°
2026-04-25 16:41 49.63798 5.42554 36098 ft 417 kts 252°
2026-04-25 16:42 49.61827 5.34080 36125 ft 420 kts 253°
2026-04-25 16:42 49.60033 5.25546 36113 ft 416 kts 253°
2026-04-25 16:43 49.58376 5.16990 36131 ft 412 kts 257°
2026-04-25 16:43 49.57103 5.08461 36142 ft 411 kts 259°
2026-04-25 16:44 49.55859 4.99891 36141 ft 410 kts 258°
2026-04-25 16:44 49.54580 4.91330 36135 ft 410 kts 258°
2026-04-25 16:45 49.53272 4.82768 36146 ft 411 kts 257°
2026-04-25 16:45 49.51949 4.74188 36138 ft 413 kts 257°
2026-04-25 16:46 49.50615 4.65584 36144 ft 414 kts 257°
2026-04-25 16:46 49.49715 4.59813 36144 ft 415 kts 257°
2026-04-25 16:47 49.47912 4.48302 36141 ft 417 kts 257°
2026-04-25 16:47 49.46546 4.39637 36146 ft 418 kts 257°
2026-04-25 16:48 49.45393 4.32367 36142 ft 418 kts 257°
2026-04-25 16:48 49.44013 4.23692 36131 ft 418 kts 257°
2026-04-25 16:49 49.42636 4.15085 36138 ft 417 kts 256°
2026-04-25 16:49 49.41245 4.06433 36142 ft 417 kts 256°
2026-04-25 16:50 49.39849 3.97799 36147 ft 416 kts 256°
2026-04-25 16:50 49.38448 3.89181 36143 ft 416 kts 256°
2026-04-25 16:51 49.37043 3.80577 36142 ft 416 kts 256°
2026-04-25 16:51 49.35871 3.73437 36146 ft 415 kts 256°
2026-04-25 16:52 49.34215 3.63401 36144 ft 415 kts 256°
2026-04-25 16:52 49.32794 3.54829 36154 ft 415 kts 256°
2026-04-25 16:53 49.30640 3.41935 36154 ft 414 kts 256°
2026-04-25 16:54 49.29205 3.33388 36143 ft 414 kts 256°
2026-04-25 16:54 49.27764 3.24844 36150 ft 414 kts 256°
2026-04-25 16:55 49.26316 3.16305 36147 ft 414 kts 255°
2026-04-25 16:55 49.24861 3.07769 36144 ft 414 kts 255°
2026-04-25 16:56 49.23399 2.99235 36146 ft 415 kts 255°
2026-04-25 16:56 49.21930 2.90700 36140 ft 415 kts 255°
2026-04-25 16:57 49.20453 2.82158 36138 ft 416 kts 255°
2026-04-25 16:57 49.18968 2.73615 36149 ft 416 kts 255°
2026-04-25 16:58 49.17475 2.65062 36154 ft 417 kts 255°
2026-04-25 16:58 49.15974 2.56508 36155 ft 417 kts 255°
2026-04-25 16:59 49.14466 2.47944 36154 ft 417 kts 255°
2026-04-25 16:59 49.12953 2.39325 36150 ft 418 kts 256°
2026-04-25 17:00 49.12048 2.30574 36132 ft 418 kts 262°
2026-04-25 17:00 49.11306 2.21785 36153 ft 418 kts 261°
2026-04-25 17:01 49.10502 2.13001 36166 ft 418 kts 261°
2026-04-25 17:01 49.09570 2.04254 36150 ft 417 kts 255°
2026-04-25 17:02 49.07433 1.96065 36162 ft 416 kts 245°
2026-04-25 17:02 49.04976 1.88075 36145 ft 416 kts 245°
2026-04-25 17:03 49.02537 1.80087 36132 ft 416 kts 245°
2026-04-25 17:03 49.00112 1.72098 36150 ft 415 kts 245°
2026-04-25 17:04 48.97687 1.64114 36145 ft 415 kts 245°
2026-04-25 17:04 48.95257 1.56132 36148 ft 415 kts 245°
2026-04-25 17:05 48.92823 1.48167 36149 ft 415 kts 245°
2026-04-25 17:05 48.89165 1.36244 36149 ft 415 kts 245°
2026-04-25 17:06 48.86720 1.28308 36152 ft 415 kts 245°
2026-04-25 17:06 48.84273 1.20392 36153 ft 415 kts 245°
2026-04-25 17:07 48.81817 1.12469 36149 ft 415 kts 245°
2026-04-25 17:07 48.79354 1.04549 36147 ft 415 kts 245°
2026-04-25 17:08 48.76888 0.96639 36145 ft 415 kts 245°
2026-04-25 17:08 48.74403 0.88733 36145 ft 416 kts 243°
2026-04-25 17:09 48.71470 0.81176 36134 ft 417 kts 239°
2026-04-25 17:09 48.68380 0.73731 36146 ft 418 kts 239°
2026-04-25 17:10 48.65278 0.66202 36149 ft 419 kts 239°
2026-04-25 17:10 48.62210 0.58695 36144 ft 420 kts 239°
2026-04-25 17:11 48.59136 0.51167 36147 ft 421 kts 239°
2026-04-25 17:11 48.56054 0.43634 36142 ft 422 kts 239°
2026-04-25 17:12 48.52958 0.36095 36139 ft 423 kts 239°
2026-04-25 17:12 48.49849 0.28543 36149 ft 424 kts 239°
2026-04-25 17:13 48.47765 0.23493 36147 ft 425 kts 239°
2026-04-25 17:13 48.43595 0.13415 36142 ft 426 kts 239°
2026-04-25 17:14 48.40449 0.05837 36144 ft 427 kts 239°
2026-04-25 17:14 48.37293 -0.01746 36139 ft 428 kts 239°
2026-04-25 17:15 48.33928 -0.09144 36144 ft 429 kts 235°
2026-04-25 17:15 48.30310 -0.16294 36140 ft 431 kts 234°
2026-04-25 17:16 48.26711 -0.23496 36140 ft 431 kts 235°
2026-04-25 17:16 48.23096 -0.30692 36139 ft 432 kts 234°
2026-04-25 17:17 48.19429 -0.37848 36137 ft 433 kts 234°
2026-04-25 17:17 48.15756 -0.44998 36128 ft 433 kts 234°
2026-04-25 17:18 48.12086 -0.52144 36130 ft 433 kts 234°
2026-04-25 17:18 48.08417 -0.59276 36132 ft 432 kts 234°
2026-04-25 17:19 48.04747 -0.66394 36130 ft 432 kts 233°
2026-04-25 17:19 48.01079 -0.73487 36129 ft 431 kts 233°
2026-04-25 17:20 47.97410 -0.80564 36131 ft 431 kts 233°
2026-04-25 17:20 47.93741 -0.87622 36117 ft 430 kts 234°
2026-04-25 17:21 47.90069 -0.94663 36133 ft 431 kts 234°
2026-04-25 17:21 47.86385 -1.01714 36124 ft 432 kts 234°
2026-04-25 17:22 47.83940 -1.06386 36123 ft 432 kts 234°
2026-04-25 17:22 47.78978 -1.15839 36115 ft 434 kts 234°
2026-04-25 17:23 47.75249 -1.22920 36121 ft 435 kts 234°
2026-04-25 17:23 47.71533 -1.29959 36116 ft 436 kts 234°
2026-04-25 17:24 47.67783 -1.37045 36117 ft 437 kts 234°
2026-04-25 17:24 47.64020 -1.44138 36113 ft 437 kts 234°
2026-04-25 17:25 47.60866 -1.50068 36112 ft 437 kts 234°
2026-04-25 17:25 47.56937 -1.56953 36104 ft 438 kts 230°
2026-04-25 17:26 47.52828 -1.63606 36108 ft 438 kts 230°
2026-04-25 17:26 47.48733 -1.70257 36107 ft 437 kts 230°
2026-04-25 17:27 47.44665 -1.76915 36103 ft 436 kts 230°
2026-04-25 17:27 47.41291 -1.82441 36105 ft 435 kts 230°
2026-04-25 17:28 47.36547 -1.90184 36119 ft 435 kts 230°
2026-04-25 17:28 47.31856 -1.95813 36127 ft 438 kts 213°
2026-04-25 17:29 47.26614 -2.00411 36129 ft 438 kts 213°
2026-04-25 17:29 47.21372 -2.05000 36128 ft 438 kts 213°
2026-04-25 17:30 47.16151 -2.09625 36134 ft 438 kts 213°
2026-04-25 17:30 47.10929 -2.14270 36130 ft 439 kts 213°
2026-04-25 17:31 47.05708 -2.18907 36128 ft 439 kts 213°
2026-04-25 17:31 47.00475 -2.23541 36135 ft 440 kts 213°
2026-04-25 17:32 46.95231 -2.28174 36137 ft 440 kts 213°
2026-04-25 17:32 46.89987 -2.32797 36138 ft 440 kts 213°
2026-04-25 17:33 46.84770 -2.37383 36145 ft 441 kts 213°
2026-04-25 17:33 46.79481 -2.42024 36141 ft 441 kts 213°
2026-04-25 17:34 46.74259 -2.46598 36131 ft 441 kts 213°
2026-04-25 17:34 46.69000 -2.51195 36141 ft 441 kts 213°
2026-04-25 17:35 46.63741 -2.55783 36148 ft 441 kts 213°
2026-04-25 17:35 46.58484 -2.60358 36143 ft 440 kts 213°
2026-04-25 17:36 46.53189 -2.64956 36147 ft 440 kts 213°
2026-04-25 17:36 46.47930 -2.69512 36153 ft 440 kts 213°
2026-04-25 17:37 46.42670 -2.74058 36153 ft 440 kts 213°
2026-04-25 17:37 46.37416 -2.78590 36135 ft 439 kts 213°
2026-04-25 17:38 46.33050 -2.82349 36123 ft 439 kts 213°
2026-04-25 17:38 46.26954 -2.87607 36151 ft 438 kts 215°
2026-04-25 17:39 46.22195 -2.93022 36155 ft 435 kts 223°
2026-04-25 17:39 46.17617 -2.98742 36152 ft 435 kts 223°
2026-04-25 17:40 46.13025 -3.04433 36152 ft 435 kts 223°
2026-04-25 17:40 46.08407 -3.10080 36154 ft 435 kts 222°
2026-04-25 17:41 46.03776 -3.15700 36152 ft 436 kts 222°
2026-04-25 17:41 45.99135 -3.21314 36145 ft 436 kts 222°
2026-04-25 17:42 45.94490 -3.26921 36154 ft 436 kts 222°
2026-04-25 17:42 45.89836 -3.32528 36155 ft 437 kts 222°
2026-04-25 17:43 45.85181 -3.38123 36156 ft 437 kts 222°
2026-04-25 17:43 45.80514 -3.43720 36156 ft 437 kts 222°
2026-04-25 17:44 45.75842 -3.49311 36155 ft 438 kts 222°
2026-04-25 17:44 45.71167 -3.54892 36143 ft 438 kts 222°
2026-04-25 17:45 45.68035 -3.58623 36154 ft 438 kts 222°
2026-04-25 17:45 45.61799 -3.66035 36163 ft 438 kts 222°
2026-04-25 17:46 45.57108 -3.71600 36163 ft 439 kts 222°
2026-04-25 17:46 45.52409 -3.77161 36169 ft 439 kts 222°
2026-04-25 17:47 45.47706 -3.82715 36169 ft 439 kts 222°
2026-04-25 17:47 45.42999 -3.88259 36174 ft 439 kts 221°
2026-04-25 17:48 45.35923 -3.96566 36176 ft 440 kts 222°
2026-04-25 17:49 45.31202 -4.02097 36168 ft 440 kts 222°
2026-04-25 17:49 45.26470 -4.07630 36173 ft 441 kts 221°
2026-04-25 17:50 45.21763 -4.13119 36171 ft 441 kts 221°
2026-04-25 17:50 45.17026 -4.18631 36181 ft 441 kts 221°
2026-04-25 17:51 45.12270 -4.24153 36177 ft 441 kts 221°
2026-04-25 17:51 45.07485 -4.29696 36182 ft 441 kts 221°
2026-04-25 17:52 45.02732 -4.35189 36180 ft 441 kts 221°
2026-04-25 17:52 44.98011 -4.40634 36180 ft 441 kts 221°
2026-04-25 17:53 44.93263 -4.46098 36180 ft 440 kts 221°
2026-04-25 17:53 44.88515 -4.51550 36183 ft 440 kts 221°
2026-04-25 17:54 44.83774 -4.56980 36179 ft 439 kts 221°
2026-04-25 17:54 44.79030 -4.62402 36177 ft 439 kts 221°
2026-04-25 17:55 44.74257 -4.67845 36188 ft 439 kts 221°
2026-04-25 17:55 44.69542 -4.73215 36187 ft 439 kts 221°
2026-04-25 17:56 44.64786 -4.78620 36186 ft 440 kts 221°
2026-04-25 17:56 44.60015 -4.84027 36186 ft 441 kts 221°
2026-04-25 17:57 44.55232 -4.89439 36191 ft 442 kts 221°
2026-04-25 17:57 44.50435 -4.94833 36187 ft 443 kts 219°
2026-04-25 17:58 44.45273 -4.99596 36193 ft 445 kts 213°
2026-04-25 17:58 44.39977 -5.04095 36194 ft 446 kts 213°
2026-04-25 17:59 44.34682 -5.08617 36194 ft 446 kts 213°
2026-04-25 17:59 44.29396 -5.13187 36192 ft 447 kts 214°
2026-04-25 18:00 44.24119 -5.17768 36197 ft 447 kts 214°
2026-04-25 18:00 44.18837 -5.22349 36199 ft 447 kts 214°
2026-04-25 18:01 44.13552 -5.26921 36198 ft 447 kts 214°
2026-04-25 18:01 44.08263 -5.31486 36195 ft 447 kts 213°
2026-04-25 18:02 44.02980 -5.36036 36191 ft 447 kts 213°
2026-04-25 18:02 43.97698 -5.40574 36197 ft 446 kts 213°
2026-04-25 18:03 43.92418 -5.45101 36194 ft 446 kts 213°
2026-04-25 18:03 43.87135 -5.49622 36187 ft 446 kts 213°
2026-04-25 18:04 43.81854 -5.54132 36191 ft 446 kts 213°
2026-04-25 18:04 43.76573 -5.58631 36190 ft 446 kts 213°
2026-04-25 18:05 43.71287 -5.63126 36194 ft 446 kts 213°
2026-04-25 18:05 43.65997 -5.67615 36195 ft 446 kts 213°
2026-04-25 18:06 43.60702 -5.72097 36180 ft 446 kts 213°
2026-04-25 18:06 43.55411 -5.76568 36209 ft 446 kts 213°
2026-04-25 18:07 43.51008 -5.80281 36202 ft 447 kts 213°
2026-04-25 18:07 43.45705 -5.84745 36206 ft 447 kts 213°
2026-04-25 18:08 43.40402 -5.89199 36195 ft 447 kts 213°
2026-04-25 18:08 43.35096 -5.93647 36191 ft 447 kts 213°
2026-04-25 18:09 43.29781 -5.98093 36183 ft 447 kts 213°
2026-04-25 18:09 43.24473 -6.02525 36177 ft 446 kts 213°
2026-04-25 18:10 43.19165 -6.06946 36174 ft 446 kts 213°
2026-04-25 18:10 43.13855 -6.11361 36153 ft 447 kts 213°
2026-04-25 18:11 43.08542 -6.15768 36138 ft 446 kts 213°
2026-04-25 18:11 43.03230 -6.20166 36139 ft 446 kts 212°
2026-04-25 18:12 42.97921 -6.24553 36122 ft 446 kts 212°
2026-04-25 18:12 42.92617 -6.28926 36105 ft 445 kts 212°
2026-04-25 18:13 42.87322 -6.33283 36109 ft 445 kts 212°
2026-04-25 18:13 42.82026 -6.37633 36105 ft 444 kts 212°
2026-04-25 18:14 42.74078 -6.44143 36098 ft 445 kts 212°
2026-04-25 18:14 42.68773 -6.48478 36092 ft 444 kts 212°